Location: Apeadero de Los Molinos-Guadarrama
(40.7091°N, 4.0689°W)
Time: 20:53:16
(UTC+00:00)

X-37B - Pass Details

Date: 28 September 2021
Orbit: 385 x 389 km, 45.0° (Epoch: 17 October)

Event Time Altitude Azimuth Distance (km) Brightness Sun altitude
Exits shadow 03:58:25 24° 46° (NE) 843 2.9 -25.3°
Drops below altitude 10° 04:00:01 10° 63° (ENE) 1,414 4.5 -25.0°
Sets 04:02:10 0° 71° (ENE) 2,270 5.9 -24.6°
